Location: Newark
(48.8519°N, 2.3472°E)
Time: 09:41:50
(UTC+00:00)

ITUPSAT 1 - Visible Passes

Search period start: 16 October 2019 00:00
Search period end: 26 October 2019 00:00
Orbit: 701 x 713 km, 98.6° (Epoch: 15 October)

Date Brightness Start Highest point End Pass type
(mag) Time Alt. Az. Time Alt. Az. Time Alt. Az.
16 Oct ? 03:21:10 10° SE 03:25:27 33° ENE 03:29:45 10° N visible
16 Oct ? 04:58:51 10° SSW 05:03:14 35° W 05:07:38 10° NNW visible
16 Oct ? 18:32:46 10° N 18:36:48 28° WNW 18:40:48 10° WSW visible
17 Oct ? 02:30:18 10° E 02:32:33 13° NE 02:34:48 10° NNE visible
17 Oct ? 04:04:47 10° SSE 04:09:34 79° ENE 04:14:23 10° NNW visible
17 Oct ? 17:38:46 10° NNE 17:43:34 78° WNW 17:48:18 10° SSW visible
17 Oct ? 19:18:25 10° NNW 19:20:35 13° NW 19:22:44 10° W visible
18 Oct ? 03:12:16 10° ESE 03:16:20 28° ENE 03:20:24 10° N visible
18 Oct ? 04:49:24 10° S 04:53:57 42° W 04:58:32 10° NNW visible
18 Oct ? 18:23:25 10° N 18:27:40 33° WNW 18:31:53 10° SW visible
19 Oct ? 02:22:04 10° ENE 02:23:29 11° NE 02:24:53 10° NE visible
19 Oct ? 03:55:38 10° SSE 04:00:23 65° ENE 04:05:09 10° N visible
19 Oct ? 05:35:25 10° SW 05:38:38 18° W 05:41:52 10° NW visible
19 Oct ? 17:29:33 10° NNE 17:34:21 87° ESE 17:39:07 10° SSW visible
19 Oct ? 19:08:46 10° NNW 19:11:30 15° NW 19:14:15 10° W visible
20 Oct ? 03:03:24 10° ESE 03:07:12 24° ENE 03:11:01 10° N visible
20 Oct ? 04:40:03 10° S 04:44:43 51° W 04:49:24 10° NNW visible
20 Oct ? 18:14:06 10° N 18:18:31 39° WNW 18:22:56 10° SW visible
21 Oct ? 03:46:33 10° SE 03:51:12 54° ENE 03:55:53 10° N visible
21 Oct ? 05:25:40 10° SW 05:29:19 21° W 05:32:59 10° NW visible
21 Oct ? 17:20:21 10° NNE 17:25:09 72° ESE 17:29:53 10° S visible
21 Oct ? 18:59:13 10° NNW 19:02:26 18° WNW 19:05:36 10° W visible
22 Oct ? 02:54:38 10° ESE 02:58:06 20° ENE 03:01:35 10° NNE visible
22 Oct ? 04:30:44 10° S 04:35:29 63° WSW 04:40:15 10° NNW visible
22 Oct ? 18:04:47 10° N 18:09:22 47° WNW 18:13:55 10° SW visible
23 Oct ? 03:37:30 10° SE 03:42:02 44° ENE 03:46:36 10° N visible
23 Oct ? 05:16:03 10° SSW 05:20:01 26° W 05:24:01 10° NW visible
23 Oct ? 17:11:11 10° NNE 17:15:54 59° ESE 17:20:35 10° S visible
23 Oct ? 18:49:45 10° NNW 18:53:19 21° WNW 18:56:52 10° WSW visible
24 Oct ? 02:45:56 10° E 02:49:00 17° ENE 02:52:06 10° NNE visible
24 Oct ? 04:21:28 10° S 04:26:15 77° WSW 04:31:04 10° NNW visible
24 Oct ? 17:55:31 10° N 18:00:12 57° WNW 18:04:50 10° SSW visible
25 Oct ? 03:28:30 10° SE 03:32:53 37° ENE 03:37:17 10° N visible
25 Oct ? 05:06:30 10° SSW 05:10:44 31° W 05:15:00 10° NNW visible
25 Oct ? 18:40:20 10° N 18:44:12 25° WNW 18:48:03 10° WSW visible
